Precipitable_Water
0.23 0.20 0.19 0.22 0.26 0.29 0.31 0.30 0.30 0.37 0.48 0.49 0.42 0.39 0.46 0.52 0.67 0.73 0.81 0.93 0.97 0.99 1.18 1.34 1.43 1.50 1.59 1.62 1.72 1.80 1.80 1.94 2.01 2.03 2.15 2.07 1.85 1.83 1.72 1.60 1.68 1.86 2.03 2.09
0.19 0.14 0.21 0.26 0.28 0.27 0.25 0.23 0.24 0.31 0.40 0.40 0.44 0.41 0.41 0.46 0.54 0.62 0.67 0.83 0.90 1.00 1.12 1.23 1.37 1.49 1.56 1.69 1.78 1.80 1.83 1.80 1.74 1.85 1.69 2.13 1.99 1.87 1.76 1.66 1.64 1.71 1.88 2.01
0.17 0.16 0.22 0.22 0.21 0.20 0.21 0.21 0.21 0.24 0.41 0.46 0.46 0.38 0.37 0.47 0.50 0.54 0.56 0.67 0.83 0.89 0.97 1.13 1.28 1.42 1.56 1.70 1.88 1.91 1.78 1.64 1.60 1.79 1.84 1.94 1.92 1.87 1.74 1.63 1.57 1.63 1.72 1.86
0.20 0.18 0.20 0.19 0.16 0.18 0.16 0.19 0.20 0.19 0.24 0.30 0.49 0.30 0.36 0.43 0.41 0.45 0.50 0.55 0.65 0.79 0.89 1.06 1.24 1.38 1.57 1.85 1.94 2.02 1.80 1.73 1.65 1.75 1.72 1.73 1.63 1.63 1.70 1.63 1.64 1.65 1.68 1.73
0.21 0.20 0.18 0.16 0.15 0.21 0.18 0.22 0.22 0.21 0.22 0.30 0.37 0.35 0.34 0.42 0.38 0.42 0.52 0.54 0.58 0.68 0.86 1.00 1.16 1.44 1.70 1.76 1.70 1.72 1.69 1.74 1.55 1.62 1.61 1.53 1.55 1.74 1.74 1.66 1.67 1.74 1.78 1.78
0.23 0.26 0.21 0.17 0.16 0.20 0.23 0.21 0.23 0.24 0.21 0.23 0.32 0.35 0.27 0.37 0.39 0.40 0.48 0.57 0.63 0.70 0.80 0.95 1.25 1.49 1.57 1.63 1.60 1.50 1.16 1.43 1.49 1.59 1.66 1.50 1.43 1.56 1.60 1.58 1.64 1.82 1.90 1.93
0.24 0.22 0.22 0.22 0.19 0.22 0.22 0.20 0.17 0.18 0.17 0.19 0.38 0.33 0.29 0.35 0.39 0.37 0.46 0.55 0.67 0.75 0.83 0.94 1.19 1.37 1.43 1.49 1.58 1.50 1.51 1.46 1.69 1.72 1.72 1.53 1.55 1.56 1.58 1.59 1.68 1.72 1.90 1.89
0.22 0.20 0.23 0.22 0.19 0.20 0.22 0.20 0.18 0.17 0.18 0.23 0.34 0.24 0.28 0.36 0.32 0.43 0.50 0.64 0.68 0.85 0.95 1.04 1.21 1.35 1.40 1.47 1.54 1.51 1.39 1.62 1.77 1.67 1.64 1.48 1.51 1.52 1.52 1.63 1.74 1.82 1.83 1.88
0.23 0.23 0.27 0.24 0.22 0.22 0.24 0.21 0.25 0.23 0.23 0.21 0.24 0.26 0.26 0.26 0.27 0.33 0.48 0.60 0.67 0.89 1.02 1.16 1.22 1.40 1.41 1.49 1.52 1.49 1.55 1.70 1.74 1.67 1.64 1.49 1.46 1.42 1.46 1.55 1.74 1.88 1.92 1.92
0.25 0.21 0.25 0.26 0.27 0.25 0.24 0.30 0.22 0.21 0.18 0.19 0.20 0.22 0.21 0.25 0.28 0.45 0.62 0.65 0.79 0.91 1.05 1.18 1.29 1.43 1.39 1.40 1.46 1.54 1.73 1.83 1.78 1.70 1.73 1.46 1.42 1.39 1.43 1.54 1.54 1.71 1.90 1.89
0.25 0.23 0.24 0.25 0.24 0.24 0.24 0.21 0.23 0.26 0.29 0.22 0.20 0.22 0.32 0.24 0.41 0.57 0.70 0.81 0.87 0.95 1.07 1.18 1.21 1.33 1.33 1.37 1.52 1.65 1.80 1.80 1.75 1.76 1.54 1.43 1.35 1.27 1.38 1.43 1.48 1.51 1.55 1.69
0.23 0.23 0.22 0.24 0.27 0.30 0.30 0.26 0.24 0.21 0.24 0.23 0.22 0.21 0.43 0.34 0.44 0.56 0.70 0.80 0.94 1.02 1.11 1.14 1.22 1.23 1.23 1.31 1.45 1.55 1.66 1.76 1.73 1.64 1.45 1.40 1.26 1.26 1.35 1.40 1.43 1.50 1.45 1.41
0.26 0.20 0.20 0.21 0.25 0.25 0.23 0.25 0.29 0.30 0.31 0.27 0.23 0.24 0.50 0.44 0.50 0.55 0.61 0.80 0.88 0.95 1.00 1.17 1.16 1.14 1.21 1.30 1.48 1.60 1.67 1.68 1.69 1.50 1.40 1.32 1.25 1.26 1.33 1.39 1.40 1.42 1.39 1.38
0.35 0.27 0.22 0.19 0.22 0.23 0.22 0.24 0.26 0.27 0.24 0.24 0.28 0.35 0.51 0.49 0.53 0.59 0.63 0.81 0.92 0.95 1.04 1.10 1.08 1.13 1.24 1.25 1.39 1.50 1.49 1.60 1.62 1.46 1.37 1.29 1.25 1.28 1.32 1.35 1.35 1.37 1.40 1.40
0.38 0.31 0.31 0.26 0.29 0.27 0.26 0.25 0.26 0.25 0.28 0.33 0.33 0.38 0.53 0.54 0.58 0.64 0.69 0.77 0.91 0.97 1.00 1.05 1.07 1.14 1.20 1.28 1.27 1.36 1.53 1.64 1.57 1.50 1.38 1.31 1.32 1.32 1.33 1.30 1.30 1.34 1.42 1.44
0.51 0.42 0.35 0.29 0.29 0.26 0.24 0.28 0.30 0.31 0.36 0.40 0.41 0.49 0.67 0.69 0.70 0.72 0.72 0.75 0.85 0.96 1.00 1.08 1.03 1.20 1.18 1.24 1.41 1.48 1.55 1.63 1.66 1.53 1.41 1.38 1.37 1.32 1.25 1.26 1.29 1.36 1.40 1.45
0.43 0.48 0.39 0.32 0.34 0.33 0.34 0.38 0.34 0.43 0.48 0.52 0.43 0.68 0.69 0.64 0.64 0.71 0.77 0.78 0.78 0.88 1.07 1.14 1.07 1.15 1.19 1.25 1.40 1.54 1.67 1.76 1.65 1.62 1.49 1.41 1.39 1.29 1.20 1.24 1.29 1.34 1.40 1.44
0.42 0.42 0.43 0.44 0.36 0.24 0.58 0.64 0.60 0.58 0.59 0.64 0.68 0.68 0.69 0.66 0.69 0.77 0.87 0.83 0.77 0.79 0.91 1.04 1.08 1.15 1.29 1.35 1.49 1.67 1.63 1.56 1.62 1.63 1.52 1.52 1.33 1.26 1.21 1.23 1.26 1.33 1.45 1.45
0.42 0.39 0.38 0.34 0.33 0.49 0.53 0.58 0.58 0.54 0.55 0.68 0.63 0.65 0.66 0.69 0.68 0.81 0.95 1.02 0.98 1.01 1.09 1.09 1.16 1.37 1.49 1.37 1.52 1.63 1.52 1.41 1.56 1.49 1.47 1.47 1.28 1.27 1.24 1.20 1.23 1.38 1.47 1.53
0.41 0.40 0.36 0.37 0.33 0.33 0.57 0.65 0.78 0.75 0.52 0.73 0.74 0.71 0.68 0.70 0.53 0.81 0.91 1.05 1.08 1.11 1.12 1.19 1.47 1.69 1.63 1.66 1.62 1.60 1.48 1.41 1.47 1.47 1.51 1.49 1.37 1.37 1.34 1.28 1.28 1.39 1.52 1.53
0.37 0.33 0.29 0.31 0.33 0.51 0.67 0.72 0.81 0.49 0.61 0.85 0.82 0.80 0.77 0.70 0.77 0.88 0.98 1.02 1.18 1.18 1.21 1.41 1.64 1.66 1.67 1.72 1.70 1.56 1.49 1.46 1.53 1.51 1.50 1.44 1.46 1.47 1.45 1.46 1.40 1.40 1.47 1.57
0.42 0.37 0.30 0.31 0.31 0.35 0.70 0.76 0.65 0.81 0.90 0.83 0.82 0.82 0.80 0.83 0.85 0.87 0.89 0.97 1.08 1.20 1.27 1.36 1.48 1.68 1.76 1.79 1.71 1.59 1.53 1.60 1.58 1.55 1.54 1.50 1.52 1.55 1.50 1.47 1.48 1.46 1.50 1.52
0.46 0.54 0.58 0.51 0.55 0.69 0.75 0.72 0.86 0.90 0.86 0.85 0.84 0.88 0.86 0.81 0.79 0.83 0.85 0.92 1.01 1.13 1.23 1.37 1.37 1.43 1.50 1.70 1.67 1.53 1.58 1.55 1.61 1.54 1.50 1.47 1.54 1.58 1.57 1.55 1.52 1.54 1.55 1.57
0.70 0.76 0.65 0.63 0.70 0.66 0.71 0.78 0.80 0.83 0.82 0.86 0.85 0.83 0.84 0.83 0.87 0.84 0.87 0.87 0.89 1.04 1.15 1.26 1.34 1.31 1.32 1.41 1.50 1.50 1.59 1.66 1.62 1.59 1.56 1.59 1.58 1.54 1.61 1.67 1.69 1.61 1.48 1.45
0.72 0.73 0.68 0.65 0.68 0.67 0.71 0.75 0.77 0.81 0.86 0.87 0.91 0.92 0.91 0.90 0.86 0.85 0.84 0.84 0.86 0.89 0.99 1.14 1.28 1.36 1.38 1.43 1.43 1.50 1.54 1.54 1.55 1.60 1.61 1.64 1.60 1.59 1.63 1.71 1.69 1.54 1.59 1.65
0.71 0.69 0.64 0.62 0.74 0.73 0.77 0.87 0.90 0.85 0.84 0.92 0.95 0.95 0.98 0.96 0.93 0.93 0.92 0.97 0.99 1.00 1.02 1.00 1.06 1.18 1.34 1.40 1.42 1.49 1.55 1.57 1.54 1.51 1.56 1.66 1.62 1.63 1.64 1.63 1.65 1.70 1.72 1.72
Wind_Speed
18 19 19 20 20 21 16 16 18 17 13 15 16 15 14 13 12 14 12 12 13 13 12 11 11 10 9 9 9 9 11 13 15 15 12 8 9 8 8 8 7 5 3 6
20 23 21 17 18 18 20 20 21 19 17 15 15 14 15 13 12 13 14 13 14 14 13 12 12 12 11 10 10 9 10 16 18 19 14 9 9 9 9 8 7 5 4 6
24 22 20 19 20 20 21 21 20 20 16 16 17 17 15 11 9 10 12 13 13 14 15 15 14 14 13 12 11 10 10 16 16 3 6 8 9 9 9 9 8 7 7 7
24 23 20 20 21 20 21 19 19 21 20 18 14 15 11 10 9 7 7 9 12 14 16 17 16 15 14 12 12 11 11 14 14 10 9 9 10 10 10 10 10 9 9 9
22 21 22 25 23 19 19 15 15 16 18 20 19 15 15 10 12 10 6 8 12 14 15 16 17 15 13 12 12 12 17 18 19 10 9 10 11 10 11 11 11 11 10 11
24 18 19 21 21 20 15 15 16 15 17 20 20 18 15 13 10 10 10 12 13 12 11 12 14 13 14 15 13 12 21 14 9 8 9 9 9 9 10 11 11 12 12 13
24 24 20 18 17 17 16 16 14 14 15 18 12 14 16 14 14 15 14 14 13 10 9 10 10 11 14 16 16 17 17 12 10 9 6 5 6 8 9 10 11 11 11 12
25 24 24 21 23 19 20 19 16 15 15 15 12 15 15 10 13 14 14 13 10 7 5 7 8 10 13 15 17 18 17 11 10 4 4 5 6 7 8 8 9 9 9 11
20 23 15 19 21 23 19 17 17 16 15 13 13 10 13 16 14 14 12 10 8 6 6 6 7 8 11 14 16 17 14 10 7 5 4 4 4 4 6 8 7 5 5 8
21 17 18 16 16 19 21 15 16 16 18 14 13 13 14 13 11 8 7 6 6 6 6 5 6 5 8 11 14 18 16 12 8 5 4 2 2 3 5 7 5 2 1 4
23 19 15 16 19 19 19 22 19 15 11 13 13 11 6 8 8 5 3 4 5 5 5 6 5 6 6 7 11 11 13 12 8 6 4 2 0 2 4 5 5 4 2 2
26 20 22 18 14 15 17 20 24 20 18 18 16 15 8 7 7 7 5 5 5 6 5 5 6 6 5 6 6 3 10 11 8 5 4 2 0 1 2 3 4 3 2 0
18 21 21 23 19 18 19 19 19 18 16 17 14 11 7 5 4 7 8 8 8 7 6 6 6 7 5 3 0 4 7 8 7 5 4 3 2 1 2 2 2 2 2 1
15 16 21 21 22 19 23 22 20 20 17 17 16 10 6 6 6 6 8 9 10 10 8 8 8 8 6 4 4 3 5 6 5 5 5 4 3 2 2 2 2 2 2 2
14 14 16 20 16 15 18 21 20 21 20 14 15 11 7 8 8 7 7 8 10 11 11 9 8 9 8 7 7 6 6 6 6 5 6 6 5 4 3 3 3 2 2 2
11 11 12 14 16 17 17 17 19 18 15 14 12 8 6 6 6 5 5 7 9 12 13 11 10 10 11 9 9 8 8 8 9 8 8 8 8 6 5 4 3 3 3 2
12 10 12 12 12 14 15 12 16 14 14 13 13 8 8 6 5 5 5 7 9 11 12 14 12 12 13 13 12 11 10 10 8 10 9 10 11 9 7 5 4 4 4 3
13 12 12 9 14 17 9 12 13 12 12 11 10 9 9 9 9 7 9 11 11 12 15 17 17 16 16 15 15 14 13 12 11 11 11 13 13 11 9 7 6 5 5 5
16 15 14 15 16 10 12 13 13 14 12 11 11 10 11 12 11 10 13 14 16 17 18 19 19 20 19 19 18 16 16 15 13 12 12 13 15 14 12 10 9 7 6 6
18 19 18 15 18 17 9 13 13 13 14 11 11 11 13 14 16 12 17 18 18 18 19 20 20 20 20 21 21 20 18 17 16 15 13 12 12 16 15 13 11 10 10 9
17 20 23 21 20 14 14 15 16 18 11 12 13 13 14 14 16 18 18 18 18 17 16 16 17 18 20 20 21 20 20 19 17 16 15 15 15 16 16 16 14 13 13 12
16 16 18 21 22 21 16 16 18 15 15 15 15 15 17 18 18 19 19 19 18 17 15 14 15 16 17 18 19 19 19 20 19 19 17 18 17 18 18 18 18 17 16 16
16 16 13 14 14 16 16 16 17 17 16 16 17 17 18 19 19 20 20 20 19 18 17 16 16 16 16 17 18 20 20 21 21 21 21 20 20 20 19 21 22 20 20 20
11 12 13 15 14 13 14 14 15 15 16 16 16 17 17 18 19 19 19 20 20 21 20 20 19 19 19 19 20 21 21 22 23 23 23 22 24 24 22 21 23 22 20 21
8 11 11 9 11 11 10 11 12 12 13 14 14 15 16 17 18 19 20 20 21 22 22 22 22 23 23 23 24 25 26 27 26 26 25 24 24 24 24 24 24 24 23 22
8 9 9 9 9 9 9 9 10 10 11 13 15 16 17 18 19 19 19 20 20 20 21 22 24 25 25 26 26 26 26 26 29 30 29 28 26 24 24 24 24 23 23 23
Wind_Direction
238 243 241 246 246 254 266 260 265 267 271 276 277 278 285 288 271 259 253 248 249 251 247 244 243 251 264 275 286 295 304 310 292 280 264 280 294 304 312 308 313 313 264 204
237 242 245 250 253 251 254 259 261 264 271 266 272 279 286 286 276 262 256 248 255 252 246 241 243 250 257 270 274 284 303 318 321 281 257 269 293 297 300 297 292 285 258 222
241 244 243 241 246 249 251 257 263 262 259 264 271 276 273 273 276 270 262 257 252 255 250 243 244 249 256 261 262 267 297 324 338 286 265 277 290 293 290 285 280 269 253 237
245 242 238 241 246 246 253 254 259 259 256 258 246 270 270 265 282 276 269 259 262 260 258 247 243 250 252 252 259 273 305 324 328 300 275 276 288 291 288 282 274 265 254 246
238 236 240 245 244 245 251 255 259 263 255 252 250 262 268 257 266 272 278 289 288 272 263 245 241 244 244 247 256 284 319 307 311 263 281 277 278 282 284 283 269 262 256 249
243 236 243 245 242 237 241 248 251 256 251 244 248 250 261 264 265 272 273 292 298 293 264 245 238 239 242 247 252 264 321 298 322 280 280 276 272 282 288 283 272 266 258 250
233 236 235 236 235 225 232 241 246 239 237 247 240 244 259 273 270 273 279 292 299 287 264 236 228 241 246 247 255 272 304 299 304 289 264 275 285 291 290 290 279 270 252 247
229 233 230 229 233 230 227 235 243 251 251 244 231 254 262 266 274 270 275 282 286 273 243 233 238 248 253 254 264 273 289 284 304 257 253 274 294 303 303 301 292 273 254 238
231 233 233 231 228 226 228 234 243 255 251 258 256 248 267 263 274 271 272 265 263 252 238 237 252 260 262 264 269 275 270 263 274 263 256 274 296 310 327 328 314 288 248 225
227 236 222 218 218 227 235 235 228 236 252 250 253 257 270 274 273 295 265 245 237 235 230 246 265 261 272 280 284 278 255 244 241 225 227 244 299 336 353 4 19 37 185 210
223 224 214 217 223 225 223 231 235 251 246 256 259 263 260 268 272 297 281 231 221 227 238 249 249 264 287 302 314 301 223 201 194 194 194 202 355 8 22 33 38 51 66 137
220 228 230 222 224 234 231 230 226 233 233 248 262 265 277 270 263 265 254 249 239 241 243 247 247 260 283 312 344 105 156 170 179 183 185 189 146 35 31 28 29 34 29 210
209 225 228 231 226 229 231 232 233 237 247 247 255 250 244 265 280 257 257 245 240 235 244 238 252 265 260 289 272 147 160 173 182 191 194 199 203 238 335 345 358 358 350 325
217 226 228 229 235 231 223 229 227 230 233 237 235 227 251 272 289 285 265 250 240 238 241 249 257 250 238 241 224 203 189 193 200 208 210 215 222 246 297 313 332 323 317 292
217 230 229 234 235 232 226 225 221 224 231 242 251 213 259 268 283 283 273 253 243 245 242 249 252 240 236 238 230 231 232 222 229 234 231 231 237 249 273 285 299 301 301 297
223 228 230 225 226 226 225 228 217 219 226 229 226 209 255 259 276 290 288 261 247 253 244 248 250 241 237 239 232 241 239 242 246 244 246 239 240 245 261 268 281 285 277 275
228 226 222 217 216 205 207 214 213 212 218 226 219 228 250 255 273 299 296 287 273 263 254 247 250 248 241 243 243 248 248 250 259 246 247 248 240 241 252 255 269 273 264 252
228 226 226 218 211 219 215 215 223 210 211 216 217 233 248 262 264 279 293 292 288 276 265 257 256 251 249 247 244 248 249 258 252 244 253 255 236 236 243 250 259 262 252 246
229 231 225 229 226 218 217 217 217 221 212 227 234 246 261 272 258 263 295 293 288 283 277 266 259 254 250 246 244 247 247 257 246 252 271 247 231 234 237 244 253 252 250 254
229 231 233 227 236 232 218 221 226 228 220 233 243 256 268 273 262 281 297 295 290 285 278 268 259 252 249 245 244 247 249 250 249 260 261 244 238 237 240 241 246 251 252 254
230 231 231 231 237 230 237 236 229 227 231 243 253 261 269 269 274 283 292 295 292 288 282 267 257 251 249 247 245 247 250 247 252 257 254 249 246 244 242 241 246 249 249 254
235 233 229 233 236 236 239 230 236 239 244 254 259 265 269 273 278 284 289 292 290 287 279 273 261 256 252 247 245 246 248 249 253 252 252 251 250 245 245 244 246 249 251 253
234 237 238 239 236 237 239 237 238 244 249 257 263 267 271 276 280 284 285 284 283 281 280 274 266 259 256 252 250 251 252 253 252 252 253 251 250 248 250 247 247 249 252 258
229 231 232 230 231 232 233 236 241 245 252 257 263 267 270 276 281 282 283 283 280 277 275 270 266 262 260 256 255 256 257 256 254 256 251 253 251 249 252 251 246 248 253 253
238 219 223 211 213 217 227 235 241 246 250 256 261 267 273 278 280 284 285 283 281 279 273 269 264 262 261 260 261 261 261 258 255 255 253 254 251 250 250 250 249 250 252 253
224 208 219 219 216 224 224 231 240 247 255 262 268 273 278 280 281 285 286 285 283 280 276 271 267 265 262 261 261 262 262 262 258 256 254 253 252 251 249 250 254 251 250 254